Total_Precipitation_Accumulation
0.04 0.01 0.02 0.02 0.03 0.05 0.04 0.04 0.05 0.07 0.07 0.06 0.06 0.05 0.05 0.05 0.05 0.04 0.03 0.04 0.06 0.11 0.15 0.17 0.18 0.20 0.22 0.15 0.07 0.04 0.04 0.04 0.06 0.06 0.08 0.09 0.10 0.11 0.12 0.10 0.10 0.08 0.05
0.03 0.01 0.01 0.01 0.02 0.04 0.04 0.04 0.05 0.06 0.05 0.05 0.05 0.05 0.05 0.05 0.06 0.06 0.06 0.06 0.08 0.10 0.11 0.13 0.14 0.14 0.12 0.07 0.04 0.03 0.04 0.06 0.11 0.16 0.21 0.22 0.21 0.17 0.21 0.23 0.21 0.13 0.06
0.03 0.01 0.01 0.01 0.02 0.03 0.04 0.06 0.06 0.07 0.07 0.07 0.06 0.05 0.05 0.06 0.06 0.07 0.06 0.07 0.10 0.12 0.11 0.10 0.09 0.07 0.05 0.03 0.03 0.03 0.06 0.09 0.17 0.28 0.51 0.65 0.52 0.38 0.30 0.26 0.23 0.15 0.12
0.02 0.00 0.00 0.01 0.02 0.02 0.03 0.04 0.06 0.07 0.06 0.06 0.05 0.05 0.05 0.05 0.06 0.07 0.07 0.09 0.13 0.16 0.14 0.09 0.07 0.04 0.02 0.02 0.02 0.04 0.07 0.11 0.20 0.40 0.90 0.87 0.84 0.67 0.37 0.26 0.21 0.22 0.28
0.02 0.00 0.00 0.01 0.02 0.02 0.02 0.02 0.04 0.05 0.05 0.06 0.05 0.04 0.05 0.05 0.05 0.08 0.12 0.15 0.16 0.17 0.17 0.13 0.09 0.05 0.02 0.01 0.02 0.04 0.07 0.12 0.25 0.53 0.90 1.19 1.26 0.78 0.47 0.36 0.30 0.29 0.36
0.03 0.01 0.01 0.01 0.02 0.02 0.02 0.02 0.04 0.05 0.05 0.05 0.05 0.05 0.06 0.06 0.07 0.10 0.18 0.23 0.22 0.19 0.22 0.21 0.17 0.11 0.04 0.03 0.03 0.04 0.07 0.14 0.27 0.55 0.90 1.42 1.26 0.75 0.53 0.42 0.38 0.38 0.42
0.04 0.01 0.01 0.02 0.03 0.02 0.02 0.02 0.04 0.05 0.07 0.09 0.09 0.08 0.08 0.08 0.09 0.15 0.22 0.25 0.23 0.23 0.24 0.20 0.14 0.08 0.06 0.06 0.05 0.05 0.09 0.15 0.27 0.55 0.86 1.26 1.03 0.60 0.45 0.37 0.35 0.36 0.41
0.05 0.01 0.01 0.03 0.04 0.04 0.03 0.05 0.07 0.08 0.09 0.11 0.12 0.11 0.08 0.07 0.10 0.15 0.19 0.22 0.23 0.21 0.16 0.13 0.10 0.08 0.09 0.10 0.09 0.10 0.12 0.13 0.19 0.42 0.71 0.81 0.62 0.40 0.29 0.26 0.24 0.23 0.26
0.09 0.08 0.05 0.05 0.04 0.06 0.09 0.11 0.12 0.11 0.11 0.12 0.11 0.09 0.07 0.07 0.10 0.13 0.17 0.22 0.22 0.15 0.11 0.09 0.08 0.06 0.06 0.07 0.06 0.06 0.06 0.10 0.16 0.31 0.65 0.66 0.40 0.29 0.24 0.21 0.16 0.16 0.19
0.21 0.21 0.22 0.15 0.08 0.06 0.07 0.11 0.12 0.12 0.13 0.11 0.09 0.06 0.07 0.10 0.12 0.14 0.12 0.14 0.13 0.09 0.06 0.04 0.02 0.01 0.01 0.01 0.01 0.02 0.04 0.05 0.10 0.23 0.45 0.48 0.36 0.32 0.28 0.22 0.17 0.14 0.14
0.49 0.46 0.39 0.31 0.17 0.12 0.10 0.10 0.12 0.12 0.13 0.11 0.09 0.08 0.11 0.15 0.17 0.18 0.12 0.11 0.08 0.05 0.03 0.02 0.01 0.01 0.01 0.01 0.01 0.01 0.03 0.04 0.11 0.22 0.37 0.39 0.42 0.40 0.37 0.32 0.25 0.20 0.17
0.72 0.67 0.44 0.39 0.33 0.25 0.17 0.15 0.17 0.14 0.12 0.12 0.16 0.12 0.17 0.29 0.34 0.26 0.22 0.13 0.08 0.06 0.05 0.03 0.03 0.02 0.02 0.03 0.03 0.02 0.03 0.04 0.11 0.21 0.34 0.40 0.43 0.46 0.44 0.37 0.30 0.25 0.22
0.58 0.51 0.45 0.50 0.46 0.43 0.41 0.40 0.38 0.37 0.34 0.26 0.30 0.27 0.31 0.33 0.29 0.29 0.27 0.20 0.15 0.12 0.12 0.12 0.08 0.06 0.06 0.07 0.08 0.06 0.06 0.07 0.10 0.12 0.20 0.30 0.36 0.46 0.51 0.45 0.37 0.32 0.26
0.80 0.68 0.57 0.52 0.52 0.55 0.56 0.64 0.68 0.63 0.57 0.51 0.44 0.33 0.38 0.48 0.49 0.42 0.42 0.38 0.36 0.32 0.29 0.25 0.21 0.15 0.14 0.13 0.12 0.13 0.12 0.11 0.12 0.13 0.20 0.25 0.30 0.44 0.54 0.53 0.47 0.41 0.36
1.23 1.07 0.85 0.77 0.67 0.67 0.73 0.74 0.65 0.67 0.69 0.78 0.71 0.54 0.59 0.59 0.59 0.65 0.61 0.61 0.56 0.55 0.51 0.42 0.33 0.29 0.27 0.23 0.21 0.21 0.18 0.18 0.18 0.21 0.29 0.34 0.34 0.42 0.56 0.60 0.59 0.53 0.50
1.60 1.42 1.19 1.01 0.98 0.96 1.01 1.01 0.89 0.78 0.80 0.86 0.92 0.85 0.89 0.88 0.86 0.87 0.90 0.95 0.82 0.76 0.78 0.69 0.52 0.46 0.42 0.36 0.33 0.33 0.30 0.30 0.30 0.30 0.41 0.41 0.39 0.42 0.55 0.68 0.73 0.73 0.73
1.86 1.66 1.58 1.37 1.42 1.43 1.49 1.45 1.44 1.34 1.28 1.20 1.17 1.21 1.22 1.16 1.14 1.09 1.18 1.27 1.14 1.08 1.08 0.98 0.87 0.71 0.67 0.61 0.55 0.50 0.48 0.47 0.46 0.47 0.52 0.55 0.56 0.53 0.56 0.65 0.73 0.78 0.80
1.78 1.76 1.78 1.59 1.57 1.73 1.72 1.62 1.56 1.67 1.68 1.61 1.53 1.56 1.47 1.46 1.48 1.51 1.45 1.43 1.38 1.33 1.30 1.35 1.19 0.99 0.90 0.92 0.83 0.73 0.63 0.63 0.64 0.61 0.61 0.68 0.73 0.69 0.64 0.60 0.63 0.72 0.79
1.70 1.57 1.63 1.82 1.74 1.86 1.86 1.79 1.78 1.88 1.98 2.04 2.01 1.94 1.89 1.88 1.86 1.93 2.00 1.86 1.69 1.57 1.53 1.41 1.36 1.21 1.15 1.11 0.96 0.82 0.67 0.63 0.71 0.72 0.67 0.71 0.79 0.79 0.73 0.61 0.62 0.75 0.79
1.67 1.69 1.68 1.85 1.84 1.98 2.09 1.96 1.97 1.96 2.02 2.18 2.32 2.42 2.52 2.59 2.55 2.47 2.35 2.20 1.99 1.86 1.78 1.64 1.54 1.38 1.23 1.09 0.87 0.76 0.63 0.55 0.59 0.64 0.65 0.68 0.69 0.68 0.68 0.66 0.67 0.65 0.67
1.83 1.87 1.79 1.78 1.98 2.05 2.17 2.26 2.43 2.39 2.35 2.58 2.88 3.05 3.24 3.30 3.12 3.03 2.91 2.69 2.43 2.18 1.97 1.72 1.53 1.37 1.20 1.03 0.91 0.80 0.63 0.48 0.50 0.54 0.55 0.57 0.57 0.53 0.51 0.53 0.56 0.54 0.52
1.92 1.91 1.96 2.08 2.17 2.29 2.60 3.00 3.37 3.60 3.73 3.81 3.97 4.02 3.96 3.83 3.69 3.54 3.37 3.08 2.71 2.41 2.12 1.82 1.52 1.32 1.15 1.00 0.94 0.94 0.78 0.59 0.47 0.39 0.39 0.38 0.35 0.31 0.30 0.32 0.34 0.35 0.36
1.82 1.97 2.03 2.33 2.65 2.94 3.40 3.94 4.32 4.67 4.89 4.80 4.62 4.45 4.22 4.04 3.85 3.53 3.26 3.06 2.73 2.31 1.99 1.71 1.43 1.26 1.10 0.92 0.80 0.81 0.79 0.70 0.54 0.40 0.31 0.26 0.25 0.24 0.22 0.22 0.24 0.25 0.25
1.57 1.84 2.07 2.42 2.93 3.59 4.25 4.79 5.20 5.38 5.38 5.27 5.01 4.64 4.22 3.90 3.61 3.28 2.95 2.65 2.36 2.01 1.71 1.44 1.16 0.98 0.86 0.73 0.59 0.49 0.46 0.45 0.49 0.42 0.30 0.24 0.23 0.22 0.19 0.18 0.19 0.23 0.24
1.36 1.67 2.04 2.51 3.14 3.75 4.38 4.89 5.27 5.39 5.27 5.00 4.58 4.14 3.67 3.24 2.90 2.59 2.29 2.02 1.78 1.53 1.27 1.01 0.84 0.73 0.66 0.58 0.50 0.45 0.41 0.37 0.37 0.38 0.31 0.23 0.19 0.17 0.15 0.15 0.16 0.19 0.19
1.21 1.54 1.90 2.31 2.84 3.33 3.73 4.21 4.49 4.59 4.49 4.19 3.72 3.20 2.77 2.46 2.18 1.95 1.70 1.49 1.31 1.09 0.91 0.77 0.66 0.61 0.58 0.52 0.45 0.40 0.38 0.36 0.34 0.33 0.32 0.24 0.18 0.15 0.13 0.13 0.14 0.15 0.17